Content
SEND FEEDBACK

Daily
Averages
Monthly
Summary
United States of America

WILMINGTON, NORTH CAROLINA


Home > North America > United States > North Carolina
Elevation: 72 feet     Latitude: 34 16N     Longitude: 077 54W

WEATHER
 
SELECT A DAY
Number of Records: 208,938;   Date Range: 1/1/95 - 8/12/14
 
SHARE

PRINT THIS DATA

[ ← Previous Day ]
WEATHER ALMANAC - JANUARY 29, 2013
[ Next Day → ]
[ °C ]   °F
Weather ElementAverageHighLow
Temperature57.3 °F75.9 °F (1:53 pm)48.2 °F (5:25 am)
Dewpoint52.7 °F59 °F (7:53 pm)46.4 °F (7:23 am)
Humidity86.7 %100 % (1:26 am)50 % (1:53 pm)
Barometer30.22 in30.27 in (12:37 am)30.14 in (1:53 pm)
Wind Speed5 mph13.8 mph (12:53 pm)
Weather ElementAverage
Visibility4.8 mi
Wind DirectionSSW (199 °)

Weather ElementTotal
Precipitation---
Heating Degree Days3 (Base 65)
Growing Degree Days12.1 (Base 50)
Averaged from 39 records on January 29, 2013
WEATHER CONDITIONS BREAKOUT
WIND DIRECTION BREAKOUT
WEATHER BY HOUR - JANUARY 29, 2013
[ °C ]   °F
Local TimeTemperatureDewpointHumidityBarometerVisibilityWind DirectionWind SpeedGust SpeedPrecipitationEventsConditions
12:37 AM53.6 °F51.8 °F94 %30.27 in0.2 miSW (230°)3.5 mphFogFog
12:53 AM53.1 °F52.0 °F96 %30.27 in0.2 miSW (230°)3.5 mphFogFog
1:26 AM53.6 °F53.6 °F100 %30.27 in0.2 miWSW (250°)4.6 mphFogFog
1:53 AM53.1 °F53.1 °F100 %30.26 in0.2 miWSW (240°)4.6 mphFogFog
2:53 AM53.1 °F52.0 °F96 %30.25 in0.2 miWSW (250°)3.5 mphFogFog
3:22 AM51.8 °F51.8 °F100 %30.25 in0.2 miWSW (240°)4.6 mphFogFog
3:32 AM51.8 °F50.0 °F94 %30.25 in0.2 miWSW (250°)4.6 mphFogFog
3:39 AM51.8 °F50.0 °F94 %30.25 in0.5 miWest (270°)3.5 mphFogFog
3:53 AM51.1 °F50.0 °F96 %30.25 in0.5 miCalmFogFog
4:00 AM51.8 °F50.0 °F94 %30.24 in0.2 miSW (230°)3.5 mphFogFog
4:15 AM50.0 °F48.2 °F94 %30.24 in0.2 miCalmFogFog
4:49 AM50.0 °F48.2 °F94 %30.24 in0.8 miWSW (240°)3.5 mphMist
4:53 AM50.0 °F48.9 °F96 %30.24 in0.8 miWSW (240°)3.5 mphMist
5:25 AM48.2 °F48.2 °F100 %30.24 in1.2 miWSW (240°)4.6 mphPartly Cloudy
5:28 AM48.2 °F48.2 °F100 %30.24 in2.0 miWest (260°)3.5 mphPartly Cloudy
5:43 AM50.0 °F48.2 °F94 %30.24 in3.0 miCalmPartly Cloudy
5:53 AM50.0 °F48.0 °F93 %30.25 in3.0 miCalmClear
6:15 AM50.0 °F48.2 °F94 %30.25 in2.5 miCalmClear
6:27 AM48.2 °F48.2 °F100 %30.25 in4.0 miWest (270°)3.5 mphClear
6:53 AM48.9 °F48.0 °F97 %30.25 in2.5 miCalmClear
7:23 AM48.2 °F46.4 °F93 %30.25 in4.0 miSW (230°)3.5 mphClear
7:53 AM50.0 °F48.9 °F96 %30.25 in4.0 miWSW (240°)5.8 mphClear
8:43 AM53.6 °F50.0 °F88 %30.25 in6.0 miWest (260°)4.6 mphScattered Clouds
8:53 AM55.0 °F51.1 °F86 %30.25 in6.0 miWest (270°)3.5 mphPartly Cloudy
9:53 AM61.0 °F55.0 °F81 %30.26 in10.0 miWest (260°)8.1 mphClear
10:53 AM66.9 °F57.0 °F70 %30.25 in10.0 miWest (260°)8.1 mphClear
11:53 AM72.0 °F57.9 °F61 %30.22 in10.0 miWest (260°)10.4 mphClear
12:53 PM75.0 °F57.9 °F55 %30.18 in10.0 miWest (270°)13.8 mphClear
1:53 PM75.9 °F55.9 °F50 %30.14 in10.0 miSW (230°)11.5 mphClear
2:53 PM75.0 °F55.0 °F50 %30.14 in10.0 miWest (260°)9.2 mphPartly Cloudy
3:53 PM73.9 °F57.9 °F57 %30.15 in10.0 miSSW (210°)10.4 mphPartly Cloudy
4:53 PM71.1 °F57.9 °F63 %30.15 in10.0 miSSW (210°)8.1 mphClear
5:53 PM66.0 °F57.9 °F75 %30.14 in10.0 miSouth (190°)5.8 mphClear
6:53 PM64.9 °F57.9 °F78 %30.15 in10.0 miSSW (200°)8.1 mphClear
7:53 PM63.0 °F59.0 °F87 %30.15 in10.0 miSSW (200°)6.9 mphClear
8:53 PM62.1 °F59.0 °F90 %30.16 in10.0 miSSW (200°)5.8 mphClear
9:53 PM62.1 °F59.0 °F90 %30.16 in10.0 miSSW (200°)6.9 mphClear
10:53 PM61.0 °F59.0 °F93 %30.15 in8.0 miSouth (180°)5.8 mphClear
11:53 PM60.1 °F57.9 °F93 %30.15 in6.0 miSouth (190°)4.6 mphClear
Hourly data recorded from KILM, located miles away from Wilmington, North Carolina







STORIES FROM OUR PARTNERS